Temperature
6 7 6 6 6 6 6 6 5 7 8 9 8 8 9 10 10 10 10 9 9 9 8 7 6 6 5 5 4 4 4 4 4 4 4 4 4 4 4 4 4 3 3 3
6 7 6 6 6 6 6 7 6 7 7 9 9 10 9 10 10 10 10 10 9 8 8 7 6 5 5 4 4 4 4 4 3 3 3 3 3 3 3 3 2 2 2 3
5 6 6 5 6 6 6 6 7 7 8 9 9 8 9 10 10 10 10 10 9 9 8 7 6 5 4 4 3 3 3 3 2 2 2 2 2 2 2 2 1 2 2 2
5 5 5 7 8 7 7 7 7 7 8 8 9 10 11 11 11 11 10 10 9 8 7 6 5 4 3 3 3 2 2 2 2 2 2 2 1 1 1 1 1 1 1 1
5 4 5 7 8 7 6 6 7 7 8 8 9 9 9 10 10 10 10 10 9 8 7 6 5 4 3 2 2 2 2 2 2 2 1 1 1 1 1 1 1 1 0 0
5 5 5 7 9 9 8 7 8 7 7 8 8 7 7 10 10 9 9 9 8 7 6 5 4 4 3 2 2 2 2 2 1 1 1 1 1 1 1 1 0 0 0 -0
5 5 5 7 8 9 7 7 8 8 8 8 8 8 10 9 9 9 8 7 7 6 6 5 4 3 3 2 2 2 2 1 1 1 1 1 1 1 0 0 0 -0 -0 -0
5 5 5 8 8 7 7 8 8 9 9 9 9 9 9 9 8 8 7 7 6 6 5 4 4 3 3 3 2 2 2 1 1 1 1 1 1 1 0 0 -0 -0 -0 -1
5 6 7 8 9 9 9 9 9 9 9 9 9 9 8 8 8 7 7 6 6 5 5 4 4 4 3 3 2 2 2 1 1 1 1 1 1 0 0 0 -0 -0 -1 -1
5 5 7 9 9 9 9 9 9 9 9 9 9 8 8 8 7 7 6 6 5 5 5 4 4 4 3 3 2 2 2 1 1 1 1 1 0 0 -0 -0 -0 -1 -1 -1
5 6 7 8 9 9 9 9 9 8 8 8 8 8 7 7 7 7 6 6 5 5 5 4 4 4 3 2 2 2 2 1 1 1 1 0 0 -0 -0 -0 -1 -1 -1 -1
5 6 6 8 9 9 8 8 8 8 8 7 7 7 7 7 7 6 6 6 5 5 5 4 4 4 3 3 2 2 2 1 1 1 1 0 0 -0 -0 -1 -1 -1 -1 -1
7 8 8 8 8 8 8 8 7 7 7 7 7 6 6 6 6 6 6 6 5 5 5 4 4 4 3 3 2 2 2 1 1 1 0 0 0 -0 -0 -1 -1 -1 -1 -2
7 7 6 6 7 7 7 7 7 6 6 6 6 6 6 6 6 6 5 5 5 4 4 4 4 3 3 3 2 2 2 1 1 1 0 0 -0 -0 -1 -1 -1 -1 -2 -2
6 6 6 6 6 6 6 6 6 6 5 5 5 5 5 5 5 5 5 4 4 4 4 4 3 3 3 2 2 2 1 1 1 0 0 -0 -0 -1 -1 -1 -1 -1 -2 -2
5 5 5 5 5 5 5 5 5 4 4 4 4 4 4 4 4 4 4 4 4 4 4 3 3 3 2 2 2 1 1 1 0 0 -0 -0 -1 -1 -1 -1 -1 -2 -2 -2
4 3 4 3 4 4 4 4 3 3 3 3 3 3 3 3 3 4 4 3 3 3 3 3 3 2 2 2 1 1 1 0 0 -0 -0 -1 -1 -1 -1 -1 -2 -2 -2 -3
3 3 3 3 3 3 3 2 2 2 2 2 2 2 2 2 3 3 3 3 3 3 3 2 2 2 2 1 1 1 0 -0 -0 -0 -1 -1 -1 -1 -2 -2 -2 -2 -2 -3
2 2 2 2 2 2 2 2 2 2 2 2 2 2 2 2 2 2 2 2 2 2 2 2 2 1 1 1 0 0 -0 -0 -1 -1 -1 -1 -2 -2 -2 -2 -2 -3 -3 -3
1 1 1 1 1 1 1 1 1 1 1 1 1 1 1 1 1 1 1 1 1 1 1 1 1 1 1 0 -0 -0 -1 -1 -1 -1 -2 -2 -2 -2 -2 -3 -3 -3 -3 -3
0 0 0 0 0 0 0 0 0 0 0 0 0 0 0 0 0 0 0 1 1 0 0 0 0 0 0 -0 -1 -1 -1 -2 -2 -2 -2 -3 -3 -3 -3 -3 -3 -3 -4 -4
-0 -0 -0 -0 -0 -0 -0 -0 -0 -1 -1 -1 -1 -1 -1 -0 -0 -0 -0 -0 -0 -0 -0 -0 -0 -0 -1 -1 -1 -1 -2 -2 -2 -3 -3 -3 -3 -3 -3 -3 -4 -4 -4 -4
-1 -1 -1 -0 -0 -0 -0 -1 -1 -1 -1 -1 -1 -1 -1 -1 -1 -1 -1 -1 -1 -1 -1 -1 -1 -1 -1 -2 -2 -2 -2 -3 -3 -3 -3 -3 -4 -4 -4 -4 -4 -4 -4 -4
-1 -1 -0 -1 -1 -1 -1 -1 -1 -1 -2 -2 -2 -2 -2 -2 -2 -2 -2 -2 -2 -2 -2 -2 -2 -2 -2 -2 -2 -3 -3 -3 -3 -4 -4 -4 -4 -4 -4 -4 -4 -4 -5 -5
-1 -1 -1 -1 -1 -1 -1 -1 -2 -2 -2 -2 -2 -2 -2 -2 -2 -2 -2 -2 -2 -2 -2 -2 -2 -2 -3 -3 -3 -3 -3 -4 -4 -4 -4 -4 -4 -4 -4 -5 -5 -5 -5 -5
-1 -1 -1 -1 -1 -1 -1 -2 -2 -2 -2 -2 -2 -3 -3 -3 -3 -3 -2 -2 -3 -3 -3 -3 -3 -3 -3 -3 -3 -4 -4 -4 -4 -4 -4 -4 -5 -5 -5 -5 -5 -5 -5 -5
-1 -1 -1 -1 -1 -1 -2 -2 -2 -2 -2 -3 -3 -3 -3 -3 -3 -3 -3 -3 -3 -3 -3 -3 -3 -3 -3 -3 -4 -4 -4 -4 -5 -5 -5 -5 -5 -5 -5 -5 -5 -5 -6 -6
Wind_Speed
4 3 5 6 8 11 12 10 9 8 8 9 9 10 11 10 9 9 8 9 9 9 7 7 6 6 5 5 5 5 5 5 5 5 6 6 7 7 7 8 9 8 8 9
1 3 5 5 9 12 13 12 11 8 9 8 7 6 7 9 10 10 11 10 10 9 9 8 8 7 6 5 5 5 6 5 5 5 5 6 6 7 7 8 8 8 9 9
2 2 1 8 12 14 9 9 11 16 14 5 5 9 11 11 11 12 12 11 11 10 10 9 8 8 7 6 6 6 6 5 5 5 5 5 6 6 7 6 7 8 8 8
2 1 7 8 5 9 11 11 11 9 8 10 11 9 8 9 11 11 10 10 10 9 9 8 7 7 7 7 6 6 6 5 5 5 5 5 5 5 5 4 5 5 6 6
3 4 8 8 5 6 8 8 12 15 10 7 7 3 3 5 7 8 8 8 8 9 8 8 9 9 8 7 7 6 6 6 6 6 6 5 5 4 3 4 4 3 3 4
4 3 6 6 4 3 4 6 6 10 12 9 9 6 6 5 5 5 6 7 8 8 7 9 9 9 9 8 7 7 6 6 6 6 6 5 5 4 3 3 3 2 2 2
5 5 7 7 3 4 3 6 5 3 8 9 9 7 4 7 5 5 6 7 8 9 8 8 9 9 9 8 8 7 7 6 6 6 6 5 4 3 3 3 3 2 2 1
6 6 9 4 5 6 7 2 1 2 3 6 5 6 7 7 6 7 6 6 8 8 7 7 9 10 9 8 7 7 7 7 6 6 5 5 5 4 3 4 3 2 2 0
8 9 6 5 7 5 4 3 2 2 3 6 6 5 6 6 7 7 8 8 7 7 7 7 8 9 10 8 8 8 8 7 6 6 5 5 5 4 3 3 3 2 2 2
5 7 7 6 5 4 4 4 3 3 4 5 5 5 6 6 7 7 8 8 8 8 9 9 8 9 9 9 9 9 8 8 7 6 5 4 4 4 4 4 4 3 3 3
5 6 5 5 6 6 3 3 4 3 3 4 4 4 5 5 6 7 8 8 9 10 10 10 9 9 9 10 10 9 8 8 7 6 6 5 4 4 4 4 5 5 4 4
6 6 5 6 4 4 5 5 5 4 3 2 2 3 3 4 5 6 7 8 9 10 10 9 10 10 10 11 11 10 8 8 6 6 5 5 4 2 4 5 5 6 6 5
5 3 3 2 0 2 4 4 3 3 2 1 1 2 3 3 4 5 6 9 10 11 10 9 10 11 11 11 12 11 9 9 7 6 6 6 5 5 4 4 5 6 7 7
2 2 1 2 2 2 3 4 3 3 2 0 1 1 1 2 3 5 7 8 8 9 9 10 10 11 11 12 12 11 10 10 9 7 7 7 6 6 5 4 3 4 5 8
3 2 3 2 3 3 3 3 3 2 1 2 1 1 2 3 5 6 6 5 6 7 9 9 11 11 10 12 12 11 10 8 8 7 7 6 6 6 5 5 5 4 3 4
1 1 3 3 3 3 2 2 1 1 1 2 3 4 4 5 5 5 4 4 6 8 9 9 11 9 10 12 12 10 9 12 11 8 7 6 6 6 6 5 5 5 5 4
3 3 3 3 3 2 1 1 0 1 2 3 4 5 5 5 4 4 4 5 6 7 7 9 9 7 10 12 12 9 8 9 13 9 7 7 7 7 6 6 6 6 5 6
1 2 2 3 3 2 2 2 2 2 3 4 5 5 4 4 5 5 5 4 4 4 5 6 6 7 9 10 10 8 8 8 8 8 7 7 6 6 6 6 7 7 5 5
4 5 5 4 3 3 2 2 2 3 4 4 4 5 4 4 4 5 3 3 4 5 5 4 7 7 8 10 10 7 8 8 8 7 6 9 8 6 6 6 6 6 6 5
5 5 5 5 4 3 2 2 3 3 4 4 4 4 5 5 5 4 3 3 4 3 3 3 4 5 7 9 11 7 8 9 8 8 7 7 7 7 7 7 7 6 6 6
4 4 4 4 3 3 3 3 3 3 4 4 4 4 5 5 5 3 2 3 4 3 3 3 3 3 5 6 10 7 7 8 8 8 8 7 7 7 7 7 7 7 6 6
2 2 2 2 2 2 2 3 3 3 4 4 4 5 5 5 5 4 3 3 4 5 3 2 2 4 6 7 6 6 7 8 7 7 7 7 7 7 7 7 7 7 6 6
1 1 1 0 0 1 1 2 3 3 3 4 4 4 4 4 4 3 4 4 4 6 3 3 4 6 7 5 5 6 7 8 8 7 7 7 7 7 7 7 7 6 6 6
1 1 1 1 0 1 1 2 3 3 3 3 3 4 4 4 3 3 3 7 8 7 3 4 6 7 7 4 5 6 6 7 7 7 7 7 6 6 6 6 6 6 6 7
3 3 2 2 2 2 2 2 3 3 3 3 4 4 3 3 3 4 5 5 7 7 4 5 6 6 3 3 5 5 6 6 6 6 7 6 7 7 6 6 6 6 6 6
4 4 4 4 4 3 3 2 2 2 3 3 3 3 3 3 4 4 4 5 6 6 4 3 3 3 2 3 4 5 5 6 7 7 7 7 7 7 6 6 7 6 6 6
4 4 3 4 4 4 3 3 3 3 3 3 4 3 4 4 4 4 4 4 4 4 4 3 3 2 2 2 3 4 4 5 5 5 5 6 6 6 6 7 6 6 5 5
Wind_Direction
220 197 164 197 203 196 202 205 204 226 227 234 214 197 190 186 181 178 184 186 184 178 172 163 153 145 138 128 119 114 105 95 87 79 73 67 61 58 57 56 55 49 48 48
261 217 203 231 226 214 217 219 225 241 251 241 221 197 193 190 186 192 199 198 190 179 173 170 164 156 146 141 134 125 116 110 103 94 84 77 71 67 65 61 55 52 50 48
257 287 333 263 227 213 211 212 205 229 236 217 201 199 200 199 198 202 204 198 188 182 178 173 168 159 155 150 137 129 125 122 115 108 99 90 87 80 73 67 60 56 50 48
171 124 238 245 235 206 218 230 214 223 224 208 213 214 207 198 199 208 201 190 183 173 166 160 157 152 147 144 141 139 138 135 127 119 113 105 99 90 81 75 71 64 53 45
171 229 275 285 252 188 199 251 226 225 224 214 205 169 241 221 204 202 191 177 169 162 156 154 155 153 147 146 147 148 150 148 142 139 133 127 120 110 102 99 89 77 66 54
182 220 250 261 282 182 140 269 259 217 212 194 162 187 233 196 163 152 142 142 145 145 145 155 159 154 152 157 159 163 161 154 148 148 149 147 143 135 129 124 119 110 86 54
203 236 265 259 252 116 169 257 307 215 194 180 188 202 181 145 137 137 135 138 143 148 155 164 161 157 161 166 173 166 155 151 151 152 154 152 146 146 146 138 127 124 114 47
188 220 252 252 152 185 223 259 14 83 136 150 151 128 133 145 148 148 147 147 151 156 162 164 163 164 170 179 170 157 155 157 160 160 161 154 149 151 151 149 144 151 147 180
199 219 242 223 210 227 190 184 182 124 121 130 136 155 163 169 171 172 170 167 165 165 168 175 176 175 181 180 165 161 162 166 167 165 163 158 161 165 162 162 167 183 190 220
240 258 256 248 238 226 200 189 173 155 147 149 159 174 185 185 184 186 184 181 175 174 182 190 188 186 184 172 169 167 172 175 172 170 170 168 172 174 171 180 183 191 204 222
243 269 284 263 228 218 196 155 139 130 143 157 165 181 191 198 199 197 193 188 185 192 198 198 190 191 182 174 172 176 179 179 178 179 175 177 183 193 189 202 194 195 206 209
226 228 216 244 250 193 173 170 161 150 143 133 167 200 204 213 210 203 198 191 195 200 202 198 192 194 187 181 179 179 183 185 183 179 178 177 177 196 223 212 220 218 210 211
233 243 213 223 18 126 153 155 145 143 155 188 250 226 223 224 215 208 205 200 204 206 204 197 195 198 192 185 184 186 188 187 184 183 182 184 184 189 210 240 243 242 240 245
215 154 177 202 184 119 125 123 113 95 71 46 270 266 245 241 234 224 222 216 210 205 202 199 200 204 194 186 187 191 189 191 189 190 189 190 193 196 198 207 230 254 258 258
281 218 191 167 130 111 103 105 100 76 26 5 355 316 283 263 256 250 242 224 206 205 206 203 207 207 189 186 189 192 191 192 191 188 189 191 191 193 200 209 219 231 248 268
240 103 127 144 157 141 116 111 116 329 331 318 316 305 290 276 270 265 250 215 206 216 213 210 214 205 187 187 190 193 197 198 189 188 188 191 192 196 202 210 220 227 234 240
184 189 183 186 182 160 129 106 79 325 321 310 302 301 297 291 285 276 265 242 230 229 220 215 215 195 186 189 191 195 193 196 193 190 194 195 196 202 206 209 218 229 235 239
186 179 168 156 153 136 99 62 35 2 334 320 318 314 306 294 285 283 278 267 254 254 241 226 210 191 191 192 192 191 189 191 192 194 195 198 202 203 205 212 221 231 239 248
75 81 80 85 92 101 89 49 15 355 342 334 326 315 306 300 296 292 286 261 251 259 261 236 215 198 197 197 189 188 187 190 194 195 194 207 209 205 208 213 222 228 234 238
69 73 73 69 64 63 56 27 13 4 354 346 337 331 326 322 317 308 293 266 257 260 260 237 218 210 203 199 191 188 189 194 198 197 197 202 206 209 212 218 223 228 232 237
77 76 73 71 64 54 42 23 10 358 349 349 345 332 322 321 325 322 309 293 300 297 281 255 228 217 203 200 196 190 192 196 199 199 200 205 210 213 216 220 225 230 233 237
88 86 79 67 59 38 23 16 4 351 348 347 344 338 333 330 329 323 298 289 305 307 295 259 241 226 215 207 195 193 195 198 200 199 202 205 209 215 219 221 225 231 234 235
147 138 124 66 347 334 2 4 351 343 339 337 335 334 329 321 317 316 315 320 313 306 298 263 258 247 233 212 196 197 199 202 204 204 206 209 212 216 219 222 225 229 233 237
211 212 221 264 294 258 305 323 329 331 329 323 325 328 327 323 319 311 301 316 324 319 299 283 276 260 241 204 195 199 204 207 208 207 208 211 214 216 220 223 227 229 233 238
225 226 229 229 235 245 260 288 307 317 325 322 323 326 326 313 299 307 311 313 323 325 311 299 291 277 249 205 201 205 207 211 211 208 209 212 216 218 222 224 227 230 233 237
231 233 235 233 233 235 239 250 267 285 300 308 310 308 315 315 312 312 313 317 319 323 320 301 295 284 254 222 212 210 211 220 229 223 213 214 218 220 223 226 229 231 235 238
238 237 240 248 242 228 224 230 244 260 267 279 290 296 307 313 317 321 323 322 323 322 316 312 305 287 263 239 226 220 216 216 218 220 216 216 218 222 224 226 229 232 234 239
Height
1486 1484 1488 1488 1488 1489 1492 1492 1495 1487 1483 1477 1475 1475 1475 1478 1480 1483 1485 1487 1488 1489 1489 1490 1490 1490 1490 1490 1490 1490 1490 1490 1489 1489 1488 1487 1487 1486 1485 1484 1483 1482 1481 1479
1486 1483 1484 1485 1483 1483 1484 1483 1484 1482 1478 1471 1471 1472 1474 1476 1478 1480 1481 1483 1484 1485 1486 1486 1487 1487 1488 1488 1488 1488 1488 1488 1488 1488 1487 1487 1487 1486 1485 1484 1483 1482 1481 1480
1490 1485 1484 1486 1475 1475 1476 1473 1474 1474 1469 1469 1469 1470 1470 1472 1474 1476 1477 1479 1480 1481 1482 1483 1484 1485 1485 1486 1486 1486 1487 1487 1487 1487 1487 1487 1486 1486 1486 1485 1484 1483 1482 1481
1491 1489 1491 1473 1464 1464 1466 1465 1465 1463 1462 1463 1464 1465 1467 1469 1471 1472 1474 1475 1476 1478 1479 1480 1481 1482 1483 1484 1484 1485 1485 1486 1486 1486 1487 1486 1486 1486 1486 1485 1485 1484 1483 1481
1490 1490 1482 1469 1461 1462 1464 1462 1457 1458 1458 1459 1461 1463 1464 1466 1467 1469 1470 1472 1473 1475 1476 1477 1478 1479 1480 1481 1482 1483 1484 1485 1485 1486 1486 1486 1486 1486 1486 1486 1485 1484 1483 1482
1485 1484 1481 1466 1457 1456 1460 1460 1451 1451 1453 1456 1459 1464 1463 1463 1464 1466 1467 1469 1470 1472 1473 1474 1476 1477 1478 1479 1480 1482 1483 1484 1484 1485 1486 1486 1486 1486 1486 1485 1485 1484 1483 1482
1481 1480 1473 1461 1456 1457 1466 1459 1450 1448 1449 1452 1455 1457 1459 1460 1462 1463 1465 1466 1467 1469 1470 1472 1473 1474 1476 1477 1479 1480 1481 1482 1483 1484 1485 1485 1486 1486 1485 1485 1484 1483 1482 1481
1476 1477 1472 1455 1456 1458 1456 1452 1450 1449 1449 1451 1453 1455 1457 1459 1460 1461 1463 1464 1465 1466 1468 1470 1471 1472 1474 1475 1477 1478 1480 1481 1482 1483 1484 1484 1485 1485 1484 1484 1483 1482 1481 1480
1466 1464 1455 1453 1452 1452 1451 1451 1451 1451 1451 1452 1453 1455 1456 1458 1459 1460 1461 1462 1463 1464 1466 1467 1469 1470 1472 1473 1475 1477 1478 1479 1481 1482 1482 1483 1483 1483 1483 1483 1482 1481 1480 1479
1460 1455 1452 1450 1450 1450 1451 1451 1451 1451 1452 1453 1454 1455 1456 1457 1457 1458 1459 1460 1461 1462 1463 1464 1466 1468 1469 1471 1473 1475 1476 1477 1479 1480 1480 1481 1481 1481 1481 1481 1480 1479 1478 1477
1455 1451 1449 1448 1448 1449 1450 1450 1450 1451 1452 1452 1453 1454 1454 1455 1455 1456 1456 1457 1458 1458 1460 1461 1463 1465 1467 1468 1470 1472 1474 1475 1476 1477 1478 1479 1479 1479 1479 1479 1478 1477 1476 1475
1451 1448 1448 1446 1446 1446 1447 1448 1449 1450 1450 1451 1452 1452 1452 1452 1453 1453 1454 1454 1454 1455 1456 1458 1460 1461 1463 1465 1467 1469 1471 1472 1473 1475 1476 1476 1477 1477 1477 1476 1476 1474 1473 1472
1446 1445 1445 1444 1444 1445 1446 1447 1448 1448 1449 1449 1450 1450 1450 1450 1450 1450 1450 1451 1451 1452 1453 1454 1456 1457 1459 1462 1463 1465 1467 1469 1470 1472 1472 1473 1474 1474 1474 1474 1473 1472 1470 1469
1443 1443 1443 1443 1443 1444 1445 1445 1446 1446 1447 1447 1447 1447 1447 1447 1446 1446 1446 1447 1447 1448 1449 1450 1451 1453 1455 1457 1459 1461 1463 1465 1467 1468 1469 1470 1470 1471 1471 1470 1470 1468 1467 1466
1441 1441 1441 1441 1442 1442 1443 1443 1443 1444 1444 1444 1444 1444 1443 1443 1443 1443 1443 1443 1443 1443 1444 1445 1446 1448 1451 1452 1454 1456 1458 1460 1462 1464 1465 1466 1467 1467 1467 1466 1466 1465 1464 1462
1438 1438 1438 1439 1439 1440 1440 1441 1441 1441 1441 1441 1441 1440 1440 1439 1439 1439 1438 1438 1438 1438 1439 1440 1441 1443 1445 1447 1449 1451 1453 1455 1457 1459 1460 1461 1462 1462 1462 1462 1461 1461 1460 1458
1436 1435 1436 1436 1437 1437 1438 1438 1438 1438 1438 1438 1437 1437 1436 1435 1435 1434 1434 1434 1434 1434 1435 1435 1436 1438 1440 1441 1443 1445 1447 1449 1451 1453 1454 1456 1457 1457 1458 1457 1457 1456 1455 1454
1434 1434 1434 1434 1435 1436 1436 1436 1436 1436 1435 1434 1434 1433 1432 1431 1431 1430 1430 1429 1429 1429 1430 1430 1431 1432 1433 1435 1437 1439 1441 1443 1445 1447 1448 1450 1451 1452 1452 1452 1452 1451 1450 1449
1432 1432 1432 1433 1434 1434 1434 1434 1434 1433 1432 1431 1431 1430 1429 1428 1427 1426 1426 1425 1425 1425 1425 1426 1426 1426 1427 1429 1431 1433 1434 1436 1438 1440 1442 1444 1445 1446 1446 1447 1447 1446 1445 1444
1431 1431 1432 1432 1432 1433 1433 1432 1432 1431 1430 1429 1428 1426 1425 1424 1423 1422 1421 1421 1421 1420 1421 1420 1421 1421 1422 1423 1424 1426 1428 1430 1432 1433 1435 1437 1438 1440 1440 1441 1441 1441 1440 1439
1432 1432 1432 1432 1432 1432 1432 1431 1430 1429 1428 1427 1425 1424 1423 1421 1420 1419 1418 1417 1417 1417 1416 1416 1416 1416 1416 1417 1418 1420 1421 1423 1425 1427 1428 1430 1432 1433 1434 1435 1435 1435 1434 1433
1433 1432 1432 1432 1432 1431 1431 1430 1429 1427 1426 1425 1423 1422 1420 1419 1418 1416 1415 1414 1413 1413 1412 1411 1411 1411 1411 1412 1412 1413 1415 1416 1418 1420 1422 1424 1425 1426 1428 1428 1429 1428 1428 1427
1433 1433 1432 1432 1432 1431 1430 1429 1427 1426 1425 1423 1422 1420 1418 1417 1415 1414 1413 1412 1410 1409 1408 1407 1407 1406 1406 1406 1407 1408 1409 1411 1412 1414 1416 1418 1419 1420 1421 1422 1422 1422 1422 1421
1433 1432 1432 1431 1431 1430 1429 1427 1426 1425 1423 1422 1420 1418 1417 1415 1413 1412 1410 1409 1407 1406 1404 1403 1403 1402 1402 1402 1402 1403 1404 1405 1407 1409 1410 1412 1413 1414 1415 1416 1416 1416 1416 1415
1431 1431 1431 1430 1429 1428 1427 1426 1425 1423 1422 1420 1418 1417 1415 1413 1411 1410 1408 1406 1404 1403 1402 1400 1399 1399 1398 1398 1398 1399 1400 1401 1402 1403 1405 1406 1408 1409 1409 1410 1410 1410 1410 1409
1429 1429 1428 1428 1427 1426 1425 1424 1423 1421 1420 1418 1417 1415 1413 1411 1409 1407 1405 1404 1402 1400 1399 1398 1396 1396 1395 1395 1395 1395 1396 1397 1398 1399 1400 1401 1402 1403 1404 1404 1404 1404 1404 1403
1426 1426 1425 1425 1424 1423 1422 1421 1420 1419 1418 1416 1414 1413 1411 1409 1407 1405 1403 1401 1399 1398 1396 1395 1394 1393 1392 1392 1392 1392 1392 1393 1393 1394 1395 1396 1397 1397 1398 1398 1398 1398 1398 1397